Theta_e
309 311 311 312 311 310 309 309 309 310 310 311 313 316 320 323 323 319 314 316 317 318 320 322 320 317 315 316 316 317 318 318 318 318 318 318 319 318 318 319 319 319 318 318 318 319 319 318 319 319 319 319 318 317 317 317 319 319 319 321 324 324 325 324 324 328 327 323 324 324 323 323 323 324 325 324 324 323 324 326 328 329 334 341 344 346 349
309 310 311 312 311 310 309 309 310 310 310 312 315 318 320 321 322 321 316 316 317 318 319 321 320 318 316 316 316 316 316 317 317 318 318 318 318 318 318 318 319 319 318 318 318 319 321 321 319 318 320 318 317 318 318 316 318 318 319 323 324 323 326 327 325 326 326 324 325 328 326 322 322 323 323 324 323 323 328 331 332 335 336 339 344 346 348
309 310 311 312 310 310 310 308 310 310 310 313 317 318 320 322 325 323 318 316 316 317 318 318 318 318 317 316 316 317 316 316 317 317 318 318 318 318 318 318 319 318 318 319 318 319 322 323 321 319 319 318 317 317 317 317 318 318 319 323 324 322 326 330 329 327 327 328 328 328 327 324 322 321 322 324 322 323 328 328 331 338 339 340 342 344 345
309 310 311 311 310 310 309 308 309 310 312 316 318 319 322 325 326 322 319 320 317 316 317 316 316 318 319 318 316 316 316 316 316 315 316 318 318 318 318 318 319 319 319 320 320 320 321 323 323 321 319 318 317 317 318 317 317 318 319 320 322 324 327 332 334 330 327 330 332 330 327 323 320 320 321 322 322 324 329 329 332 340 344 343 342 342 342
310 310 310 311 310 310 309 308 309 311 314 317 319 320 323 326 324 319 318 321 319 318 317 316 317 318 319 318 316 316 316 316 316 315 315 317 317 318 319 318 319 321 321 321 321 321 322 322 322 321 320 320 318 316 318 319 318 319 320 319 322 327 327 328 331 329 326 327 327 324 324 321 319 319 320 321 323 323 326 327 330 339 347 346 344 342 341
310 309 310 311 310 309 309 308 308 312 316 319 322 323 323 323 321 317 317 319 319 318 317 317 318 317 318 318 316 316 316 315 316 317 316 317 318 319 321 319 320 321 321 322 323 323 324 325 325 323 322 322 320 317 318 320 320 320 321 321 322 325 325 322 321 323 324 324 324 322 322 321 320 321 320 321 322 321 323 324 325 335 346 346 345 343 340
310 310 310 311 310 309 309 309 309 312 318 322 324 322 320 322 322 320 321 321 318 316 316 316 317 317 320 322 318 316 316 315 316 318 317 318 318 319 321 320 320 322 322 325 326 325 325 326 327 325 322 322 322 322 322 321 321 321 321 322 321 322 325 324 320 321 322 322 322 322 321 320 320 321 321 321 321 320 321 322 325 337 345 345 344 344 342
310 310 310 311 311 310 310 309 309 310 316 321 323 320 319 322 324 323 325 324 318 315 317 319 320 318 320 322 319 315 316 315 315 317 318 319 319 318 319 319 319 321 322 324 324 323 324 324 324 323 323 323 323 324 323 321 321 322 322 322 321 322 326 325 322 322 321 320 321 322 320 321 320 319 320 321 320 320 321 320 328 341 344 342 343 344 342
310 310 309 310 311 310 310 310 310 310 313 317 320 320 319 320 323 326 328 328 321 316 318 321 323 322 320 321 319 315 316 315 315 316 316 318 319 318 318 320 319 319 320 320 319 319 320 320 319 319 319 320 321 322 321 320 321 323 323 322 322 323 324 324 325 324 321 320 320 320 320 320 318 318 322 322 320 321 321 321 329 338 342 341 342 342 341
310 310 309 310 311 311 310 311 310 311 312 314 318 321 318 316 321 326 330 331 326 321 320 321 322 320 318 318 317 316 316 316 317 319 317 315 316 317 317 320 321 320 319 318 316 315 316 316 316 316 316 317 318 319 319 318 319 321 321 321 323 325 324 324 326 324 321 320 319 319 320 321 319 320 323 324 324 322 319 322 330 336 340 342 341 341 340
310 311 310 310 311 311 311 311 311 311 312 314 320 323 319 316 321 328 330 331 329 323 321 322 321 319 317 316 316 317 317 316 318 321 320 316 315 318 317 318 321 321 317 315 314 314 314 314 315 315 316 316 317 317 318 317 317 318 319 320 324 328 327 325 325 323 322 322 322 321 320 319 320 324 324 324 325 324 321 326 333 337 339 341 341 339 337
310 311 310 310 310 311 311 311 311 311 312 315 319 322 318 315 320 329 331 331 331 326 320 320 319 318 317 317 318 318 317 316 316 318 319 318 317 318 316 316 320 319 316 314 315 315 316 316 315 314 315 316 317 317 317 317 317 317 317 319 324 328 328 326 325 322 322 324 324 321 321 322 323 326 325 324 325 326 327 330 335 337 338 339 339 337 335
311 311 311 310 310 311 310 311 311 311 311 315 319 321 319 315 317 326 331 331 331 328 320 318 318 317 318 319 317 317 317 317 317 318 318 318 318 317 315 315 316 316 315 315 315 317 320 320 318 317 317 317 316 316 316 317 317 317 317 317 321 325 326 327 326 323 322 323 321 320 324 327 328 327 326 326 327 328 329 331 333 337 337 337 338 338 335
311 311 312 311 310 311 310 310 311 311 311 314 318 321 321 317 314 320 328 331 331 327 321 320 320 317 318 318 316 317 318 317 318 318 317 317 318 317 315 316 316 315 315 316 316 319 322 322 320 319 320 319 318 319 320 320 318 317 317 317 318 322 324 327 328 325 322 321 321 324 328 328 328 329 327 326 327 328 329 330 332 335 336 335 336 337 334
313 311 312 312 310 310 310 310 311 312 311 313 316 318 319 316 312 316 326 331 331 327 321 321 321 319 319 318 317 319 321 321 321 320 317 317 319 317 315 315 315 315 315 316 319 322 324 323 322 321 322 322 321 321 321 321 319 317 317 316 318 321 323 326 328 327 324 322 321 325 327 326 328 331 327 324 324 323 327 332 331 331 333 334 334 334 332
316 311 311 312 311 310 310 310 310 311 311 312 313 315 316 314 312 314 323 330 330 327 322 319 319 318 318 318 317 319 322 324 324 323 322 321 320 318 316 315 316 316 316 317 320 323 324 323 322 321 322 322 321 320 319 319 318 319 320 320 320 321 321 323 325 323 323 322 321 321 325 329 332 331 325 323 322 321 324 329 329 329 332 333 333 332 331
318 313 311 312 312 310 310 311 310 310 311 310 312 314 315 313 311 313 319 326 327 326 321 317 317 318 320 322 321 319 321 322 322 323 326 325 321 318 317 317 317 316 316 319 322 323 324 324 322 321 322 321 319 318 318 317 317 318 323 324 323 322 322 321 319 318 320 322 320 321 327 332 332 327 321 319 319 320 324 326 327 328 330 331 331 330 330
320 315 311 311 313 311 310 310 310 310 311 310 312 317 317 313 311 311 316 321 323 324 322 317 317 319 321 323 323 319 319 319 319 323 326 324 321 319 319 318 318 318 318 322 325 324 323 323 322 322 323 322 319 317 317 318 318 318 322 324 324 323 323 320 318 317 319 320 317 321 328 330 327 323 319 316 317 320 323 326 327 326 326 327 329 329 328
322 317 312 311 312 312 311 310 310 311 311 309 311 317 318 315 312 310 312 315 318 322 324 320 317 318 319 320 320 318 316 317 319 322 325 324 321 319 319 318 317 319 320 321 323 322 322 323 324 323 323 324 322 319 319 320 319 318 319 322 323 323 322 321 320 318 319 318 317 322 330 328 322 320 316 314 320 324 324 325 326 323 322 324 326 326 326
323 319 313 311 312 312 311 311 309 310 311 310 310 314 319 320 316 312 310 310 311 317 322 321 319 319 318 317 318 319 318 318 319 321 324 324 322 320 322 322 319 319 321 322 322 323 323 324 324 322 322 324 323 322 322 322 320 319 319 319 322 323 320 320 321 319 319 318 316 321 329 326 320 320 319 318 323 327 326 324 323 322 322 322 322 324 324
323 320 314 311 312 312 312 312 310 309 310 310 310 314 322 324 318 312 311 310 310 315 321 322 320 319 318 317 318 319 319 319 320 321 322 323 321 320 323 323 321 321 322 322 323 323 323 323 323 321 322 324 323 322 323 323 322 321 319 320 322 321 319 321 323 321 320 321 320 322 326 324 319 322 324 323 324 326 324 322 322 322 321 321 321 322 322
324 321 315 311 311 312 311 312 311 310 310 310 309 312 320 322 318 312 311 311 312 314 316 317 318 318 317 317 317 318 318 318 319 320 320 321 321 320 320 320 320 321 320 320 322 323 323 323 323 322 323 323 323 323 324 323 322 321 320 321 323 321 320 323 326 324 322 325 325 323 322 322 321 322 324 323 323 323 322 321 321 320 320 320 320 319 320
323 321 315 311 311 312 312 312 312 311 310 310 309 310 313 315 314 312 311 312 316 318 318 319 320 319 319 319 317 316 317 317 317 318 318 318 319 320 319 319 319 320 320 320 321 322 322 323 322 322 324 324 323 324 324 323 323 323 321 321 322 320 319 321 325 324 321 322 323 322 321 321 322 322 322 322 322 321 321 321 320 319 319 319 319 318 318
323 320 315 311 311 311 311 312 312 312 311 311 311 311 310 311 312 311 310 313 319 323 322 322 322 321 322 321 319 317 317 317 317 317 317 317 318 320 321 320 320 321 321 320 320 320 320 321 321 321 322 323 324 324 323 323 323 323 322 322 322 321 320 321 324 324 321 321 323 323 322 322 322 321 322 321 320 320 320 320 320 319 318 319 319 318 318
322 320 314 311 311 311 311 311 311 312 312 311 311 311 311 312 312 310 310 313 319 323 324 324 323 322 322 320 319 319 319 318 318 318 318 317 317 318 320 321 320 321 321 321 320 320 321 321 322 322 322 323 323 324 324 324 324 323 323 324 324 322 321 321 325 326 324 322 322 321 319 320 321 321 322 320 319 318 317 318 319 318 317 318 319 318 318
322 320 315 312 311 311 311 311 311 311 311 311 311 310 310 311 310 310 309 311 316 321 323 324 323 322 322 321 320 320 320 320 320 320 319 319 318 318 318 319 320 321 321 320 320 320 320 321 322 322 323 323 323 323 324 324 324 324 324 323 322 321 321 322 325 325 324 323 322 321 321 321 320 320 321 320 318 317 316 317 317 317 317 318 318 318 318
322 321 317 313 311 312 311 311 312 311 311 311 311 310 310 310 309 309 309 310 316 322 324 323 324 324 323 322 321 321 320 319 319 319 320 320 320 319 319 319 320 320 320 320 320 320 320 321 322 322 323 323 322 323 323 323 323 323 323 322 320 321 322 323 323 323 324 324 322 322 325 325 322 320 320 319 318 317 316 316 316 317 318 318 317 317 317
321 321 318 314 312 312 311 311 312 311 311 312 311 310 311 311 309 310 311 312 316 321 323 323 323 322 321 321 321 320 320 319 319 319 320 320 320 320 319 319 320 320 319 320 321 321 321 322 322 322 322 323 323 323 322 322 323 323 322 321 320 321 322 323 322 322 323 323 320 319 321 322 321 319 319 319 319 319 318 317 317 317 318 319 317 317 316
322 321 319 315 313 312 311 312 312 311 312 312 310 310 315 316 314 314 315 314 313 316 320 323 322 321 322 323 321 320 320 320 320 320 320 320 320 320 319 319 320 320 320 320 321 322 322 322 322 322 322 322 322 323 322 322 323 323 322 320 320 321 321 320 321 321 321 321 320 320 320 319 319 318 318 318 319 319 319 318 318 317 317 318 317 317 316
322 321 318 314 312 311 311 312 311 311 312 311 309 313 320 321 319 318 317 316 315 316 320 324 323 321 321 322 322 322 321 320 321 321 320 321 320 320 320 320 320 320 320 321 322 322 322 322 322 323 322 321 321 322 322 321 321 321 320 319 320 320 319 319 319 320 320 320 320 320 320 319 319 318 318 318 319 319 319 318 318 318 318 318 317 317 316
322 320 316 313 312 311 312 312 311 311 312 310 310 318 324 325 323 321 317 316 316 316 318 322 323 322 321 320 321 323 322 321 321 321 321 321 321 321 321 321 321 321 321 321 321 322 322 322 322 322 321 320 320 321 321 320 320 320 319 319 318 318 318 318 318 318 319 319 319 319 319 319 319 319 319 318 318 319 318 318 318 318 318 317 317 317 316
321 318 313 312 312 312 312 312 311 311 311 308 310 316 320 320 319 316 314 314 316 316 320 322 322 321 322 322 322 322 322 322 322 321 321 322 322 321 322 321 321 322 321 321 322 322 321 321 321 321 321 320 320 321 321 320 320 320 319 319 319 318 318 318 318 318 318 318 318 319 319 319 319 319 319 319 319 319 318 318 317 317 317 317 317 316 316
320 315 312 312 312 312 312 312 311 310 311 313 315 316 315 315 315 314 315 316 316 317 321 323 322 321 322 323 323 322 322 322 322 322 323 323 321 321 322 322 321 322 322 322 322 321 320 320 320 321 321 320 320 321 321 320 319 319 318 318 319 319 318 318 318 318 318 318 318 318 318 318 318 318 318 318 319 319 319 318 317 317 317 317 316 316 316
316 313 312 312 312 311 311 311 311 310 312 318 321 319 317 317 317 316 317 317 315 316 319 321 321 322 322 322 324 324 322 322 323 322 323 324 322 321 322 321 321 322 322 322 321 321 320 320 320 321 321 320 320 321 320 319 319 319 318 318 318 318 318 318 318 318 318 318 318 318 318 318 318 317 317 318 318 318 318 318 317 317 317 316 316 316 316
314 312 312 312 311 311 311 311 311 312 315 320 322 320 320 321 320 317 316 315 315 319 322 321 321 322 323 323 326 325 321 322 324 323 323 323 322 322 322 321 322 323 322 321 321 321 321 320 320 321 321 321 320 320 320 320 319 319 318 318 318 317 318 318 318 318 317 317 317 317 317 317 318 318 317 318 318 318 318 318 318 317 317 316 316 315 316
312 311 312 312 311 311 311 312 313 315 318 321 322 321 322 322 319 316 314 313 315 319 323 323 323 324 324 324 325 323 322 323 324 323 322 322 322 322 322 322 323 323 321 321 322 322 321 320 320 321 321 320 320 321 320 319 319 319 318 318 318 318 318 318 318 317 317 316 316 316 317 317 317 317 317 317 317 317 317 317 317 317 317 317 316 315 316
311 312 312 312 312 313 315 318 318 318 319 319 318 317 318 318 317 317 318 317 316 317 319 321 323 324 324 324 324 323 323 323 323 322 322 322 322 322 322 323 323 322 321 322 323 322 321 321 321 320 321 321 321 320 319 318 319 319 319 318 318 317 317 317 317 317 317 316 315 315 315 315 316 316 316 317 316 316 316 317 317 317 317 317 316 316 316
312 312 311 311 314 318 321 322 321 320 318 316 313 313 315 318 319 321 321 320 319 319 318 319 321 321 322 324 324 322 322 323 323 323 322 322 322 322 322 323 323 322 321 322 321 320 321 322 322 321 321 320 319 318 318 319 319 319 318 317 316 316 316 316 316 316 316 316 316 315 315 316 315 315 315 315 315 315 315 315 316 317 317 317 316 316 316
312 312 313 315 318 322 323 323 322 320 318 315 315 316 319 321 321 322 322 321 321 321 320 320 321 321 322 324 325 323 322 322 323 323 322 322 322 322 322 322 321 320 320 321 319 319 321 322 321 321 321 320 319 319 319 319 318 317 316 315 315 315 316 316 316 316 316 316 316 315 316 316 316 314 314 314 315 315 315 315 315 315 316 316 316 316 316
313 315 318 320 322 322 321 320 318 317 316 318 320 321 322 322 322 322 323 323 322 322 323 322 322 323 323 324 324 323 322 322 323 323 323 322 321 320 321 321 320 319 320 320 319 318 319 319 320 320 321 320 320 319 319 318 318 317 316 316 315 315 316 316 316 315 315 315 315 315 315 316 316 315 315 315 315 316 316 315 314 314 315 315 315 315 314
316 319 321 321 321 321 320 317 316 316 318 321 322 322 322 322 322 322 322 322 322 323 323 323 323 324 324 323 323 323 323 322 322 322 322 322 321 320 321 321 319 318 319 319 318 318 319 319 320 321 320 319 318 318 319 318 318 317 316 316 315 315 315 315 315 314 314 315 315 315 315 316 316 316 315 315 315 316 316 315 315 314 314 314 314 314 312
318 320 321 320 319 320 319 318 318 319 321 321 321 321 321 321 321 321 321 322 323 324 323 323 324 325 324 323 323 323 322 321 320 320 321 322 321 321 321 320 318 318 319 317 317 319 320 320 320 320 319 318 318 317 318 318 317 316 316 315 315 314 314 314 313 313 313 313 313 313 314 314 315 314 314 314 315 316 316 315 314 314 314 314 315 313 311
316 318 318 317 318 319 320 319 319 320 320 320 320 320 320 318 319 322 323 323 323 324 323 323 323 324 323 322 323 323 321 320 320 321 322 322 321 320 321 320 319 319 319 317 317 319 320 319 319 319 318 318 317 316 316 316 316 315 314 314 314 313 313 312 312 312 311 311 311 311 312 312 313 313 313 314 314 314 315 314 314 313 313 314 314 312 311
316 317 318 318 319 320 319 319 319 321 322 320 319 319 319 318 319 322 324 324 325 324 323 322 323 323 323 322 322 322 322 321 320 320 321 321 321 321 321 320 319 319 318 317 317 318 318 318 319 318 317 317 317 316 315 315 315 313 313 312 312 311 311 310 310 310 310 310 310 310 310 311 311 311 313 314 315 314 314 314 314 313 313 313 313 311 311
317 318 319 319 319 318 316 316 318 321 322 320 318 318 318 319 320 323 324 324 324 324 323 323 323 323 323 322 321 322 322 322 320 320 320 321 321 321 320 320 318 318 318 317 317 317 317 317 317 318 317 316 316 315 314 313 312 311 310 310 309 309 309 309 309 309 309 309 309 309 309 309 310 310 311 313 313 313 312 313 312 312 313 313 312 311 311
319 319 318 317 317 316 315 315 316 317 319 319 319 318 319 320 323 324 324 323 322 323 323 323 323 323 323 322 322 321 322 321 320 321 321 321 321 321 319 318 317 316 316 316 316 316 317 317 317 317 316 314 313 312 311 310 309 309 308 308 308 308 308 308 308 308 308 308 308 308 308 308 309 309 310 312 313 312 312 311 312 312 312 312 311 311 310
319 319 317 317 317 316 316 315 315 315 316 316 317 318 319 321 323 323 322 322 322 322 322 321 321 322 323 322 322 322 322 321 320 320 320 321 321 320 318 316 316 315 315 316 317 317 317 317 315 314 312 311 310 309 309 308 308 308 308 308 308 308 308 308 308 308 308 308 308 308 308 308 308 309 309 311 311 312 311 311 311 311 310 310 310 310 309
319 318 318 317 317 316 316 316 316 316 316 316 316 316 318 321 324 324 323 322 322 322 322 321 321 322 322 322 321 322 322 320 320 320 320 320 319 318 317 316 316 315 315 317 318 318 317 314 312 310 310 309 309 309 309 308 308 308 308 308 308 308 308 308 308 308 307 307 307 307 307 307 307 308 308 309 310 311 311 310 309 309 309 310 309 309 309
317 317 318 318 317 317 317 317 316 316 316 316 317 318 320 322 324 324 323 323 323 323 323 322 322 323 323 322 321 321 321 321 320 319 319 319 319 318 317 316 315 316 316 316 316 315 313 311 310 310 310 310 309 309 309 308 308 308 308 308 308 308 308 308 308 307 307 307 307 307 307 307 306 306 307 308 310 310 310 309 309 309 309 309 309 308 308
316 316 317 318 318 318 317 316 316 317 316 316 317 320 322 323 323 322 322 323 323 322 323 323 322 322 322 321 320 320 320 321 320 319 318 318 318 317 316 316 316 316 315 314 313 312 312 311 310 310 310 309 309 308 308 308 307 307 307 307 308 308 308 307 307 307 307 307 307 307 307 307 306 306 307 308 310 309 309 309 309 309 308 308 308 307 307
315 316 316 316 317 317 316 316 316 316 316 316 318 321 323 324 322 321 322 323 323 322 323 323 323 322 321 320 319 317 318 318 319 319 318 317 316 316 316 316 316 315 313 311 312 312 311 310 309 309 309 308 308 307 307 307 307 307 308 308 308 308 308 308 308 307 307 307 307 307 307 306 306 306 307 308 309 308 308 308 308 307 306 306 307 306 306
314 315 315 316 316 316 316 316 317 317 316 317 320 322 324 324 323 322 322 323 323 323 323 323 322 321 320 319 318 318 317 317 318 318 318 316 315 315 316 315 314 311 310 311 311 311 310 308 308 308 308 307 307 307 307 307 308 308 308 308 308 308 307 307 307 307 307 307 307 307 306 306 307 307 307 308 308 308 307 307 307 307 307 306 306 306 305
Wind_Speed
16 16 17 18 20 22 22 22 22 22 21 17 16 17 12 8 10 5 1 2 5 6 5 5 3 3 3 1 2 5 5 6 8 6 6 5 2 1 2 4 4 4 2 6 2 4 2 0 1 3 3 2 4 8 13 15 11 7 3 4 8 7 2 3 4 3 5 6 6 6 5 3 4 3 0 0 4 5 3 3 1 2 5 5 4 5 2
15 15 16 17 19 21 21 20 20 21 22 21 20 20 16 15 16 7 2 1 6 6 3 2 2 4 1 1 5 5 5 7 8 7 7 5 3 3 3 3 3 4 4 5 4 5 2 2 0 2 2 2 4 6 9 11 7 4 3 3 5 5 3 3 3 4 5 3 3 2 3 4 3 4 3 4 8 7 1 3 4 4 4 3 3 5 3
15 15 16 17 19 20 20 19 18 19 19 19 20 21 17 15 13 6 2 4 8 3 6 4 3 3 1 3 4 4 5 5 4 6 6 6 7 4 2 2 2 2 2 2 4 5 2 2 3 4 1 3 3 6 8 8 6 5 5 6 5 2 2 3 2 2 2 2 1 2 3 3 4 5 5 7 10 5 2 3 4 4 1 2 4 6 4
14 15 15 16 18 20 19 17 16 16 16 16 18 19 13 7 6 3 4 6 1 5 10 7 4 2 0 2 2 2 5 6 3 7 5 4 7 5 2 5 6 6 6 5 4 5 6 3 4 3 2 3 3 6 6 7 6 9 10 6 4 2 2 0 4 2 0 3 3 2 2 4 4 4 7 11 11 2 5 2 3 5 2 2 4 12 12
14 14 15 16 17 20 19 17 14 11 12 15 16 16 11 5 4 3 4 7 8 10 11 9 5 3 3 2 2 3 5 4 5 6 5 4 6 5 4 7 7 7 8 5 4 6 6 5 6 6 6 2 2 2 5 7 8 11 10 9 4 2 3 2 1 1 3 4 4 5 5 5 4 4 8 13 11 2 4 3 4 7 5 4 4 14 17
14 14 14 15 17 19 19 18 14 7 8 14 15 13 10 6 7 9 6 3 4 6 7 8 7 7 6 2 2 5 7 5 5 5 4 6 8 5 4 8 9 9 8 5 2 5 4 4 7 7 8 6 1 1 4 11 13 11 9 9 5 0 2 7 7 4 3 5 7 6 6 5 6 9 9 7 6 6 3 1 1 3 5 6 9 14 16
13 14 14 14 16 18 19 18 14 7 6 11 13 10 12 12 10 14 14 8 3 2 4 2 6 6 5 3 4 6 7 7 7 6 5 5 7 7 5 7 9 9 8 5 2 4 3 3 4 4 6 7 5 3 4 9 15 12 5 5 5 1 2 6 8 7 7 7 6 4 6 6 6 9 9 7 9 10 7 4 4 7 10 12 12 12 12
13 13 13 14 15 16 18 18 15 10 6 9 15 14 15 14 10 12 16 12 7 5 6 2 4 2 1 1 3 4 7 7 7 8 7 4 5 6 6 6 7 7 7 5 4 5 3 1 3 4 4 5 4 4 3 5 10 10 4 3 5 3 3 5 4 5 8 8 2 2 6 6 5 8 9 9 7 8 9 7 6 10 13 12 11 10 7
12 13 13 13 14 15 17 18 17 14 9 9 14 16 16 12 7 9 12 7 5 5 6 3 2 2 1 2 3 4 6 6 5 6 8 8 6 6 5 4 4 5 6 6 6 6 4 3 5 6 6 6 5 3 3 4 6 7 5 5 5 4 3 6 4 3 4 7 4 3 5 5 5 6 8 9 4 2 5 5 5 9 11 12 10 7 4
12 12 12 12 12 14 15 16 16 15 12 11 14 17 20 13 5 9 11 5 6 6 3 1 4 2 1 3 3 4 6 7 7 4 4 6 6 5 6 6 4 4 6 6 5 7 8 6 5 6 6 7 6 3 3 4 4 4 4 4 5 4 3 4 4 3 3 7 6 5 3 2 3 4 7 9 7 2 3 6 8 11 12 10 8 7 6
11 12 11 11 11 12 13 14 15 15 14 15 15 17 22 19 10 12 12 5 7 7 0 4 3 1 1 3 4 5 6 7 7 4 2 4 4 4 7 8 4 4 4 4 3 3 5 5 5 5 4 5 5 4 4 6 6 3 4 3 4 5 4 3 3 2 4 7 8 7 3 2 0 3 6 10 11 7 1 4 10 12 10 7 6 8 9
11 11 11 11 10 10 11 11 13 14 14 14 14 15 19 19 12 11 10 3 6 7 2 4 3 1 3 5 6 7 8 8 7 5 4 4 5 7 9 9 6 2 1 1 2 4 4 4 4 2 2 2 4 5 4 2 4 4 6 5 4 5 5 3 2 1 3 6 7 5 2 1 1 5 8 10 11 9 7 10 12 12 12 12 12 11 11
10 11 10 10 9 8 10 10 10 11 11 11 12 14 17 18 13 11 9 3 4 7 4 4 4 4 5 7 8 8 8 7 6 6 5 3 5 8 8 7 5 3 2 1 2 5 5 2 1 1 2 2 3 4 1 4 3 5 8 7 5 4 3 2 2 1 2 3 3 0 2 3 4 7 7 8 8 7 7 10 10 9 11 13 12 9 9
9 10 10 10 9 7 8 9 9 9 9 10 9 10 14 16 15 13 10 4 4 8 7 3 4 5 5 6 6 4 5 5 3 5 4 3 4 9 8 6 5 4 5 3 2 3 2 0 1 0 1 0 1 3 2 3 2 3 5 5 4 4 2 2 2 2 1 1 3 1 1 3 4 4 3 5 6 5 3 6 7 7 11 13 11 9 10
8 9 9 9 9 7 7 8 8 7 8 8 8 8 10 13 15 12 8 5 5 6 9 6 4 5 5 4 3 2 2 4 3 3 2 2 2 7 5 5 5 4 4 3 2 3 2 1 0 2 1 1 1 1 2 2 0 4 4 2 3 2 2 3 2 2 2 2 3 2 2 1 3 3 3 8 9 8 5 5 4 5 12 16 13 12 13
7 8 9 9 8 7 6 6 7 7 6 6 7 8 9 11 13 10 7 6 5 4 6 6 5 4 3 3 2 1 1 2 1 2 1 1 2 6 5 3 4 4 4 3 2 2 1 2 1 1 1 1 1 1 1 2 1 3 5 2 2 2 2 3 1 3 3 2 2 1 0 3 4 3 5 10 11 8 6 5 1 1 13 20 15 12 15
7 7 8 8 8 7 5 5 6 7 7 6 6 7 8 10 13 11 8 9 8 6 4 5 5 5 3 2 2 1 1 4 2 0 2 0 1 3 5 2 1 1 4 3 2 2 1 2 1 2 1 1 2 2 1 2 1 1 2 2 1 2 1 1 0 2 2 2 3 1 0 2 3 2 7 9 7 5 4 3 3 4 10 20 20 17 18
7 6 8 8 7 6 5 5 5 6 7 7 6 7 7 9 12 10 7 9 8 6 5 8 7 7 4 2 2 3 4 5 3 1 3 3 2 2 3 1 1 2 2 3 1 1 1 2 0 1 1 0 1 2 1 1 1 2 2 1 0 1 1 2 3 3 4 3 3 1 0 1 1 4 7 6 5 4 3 3 5 5 5 12 18 19 21
6 6 7 7 7 6 5 5 4 5 6 6 5 6 6 8 11 10 8 9 7 6 7 8 6 5 3 3 3 2 2 3 3 2 1 2 1 3 2 2 1 2 2 1 1 1 2 1 1 1 1 0 1 2 2 1 1 2 3 3 2 2 1 2 3 3 3 3 3 1 1 0 3 6 7 5 3 1 3 1 4 10 16 15 13 15 20
6 6 6 6 6 6 5 5 4 4 5 5 5 5 5 7 11 10 9 10 9 9 8 7 6 7 4 3 5 5 2 2 2 3 4 2 2 3 3 1 0 1 2 1 1 1 1 1 1 0 1 1 1 1 1 2 2 2 1 0 0 0 2 2 2 2 2 3 1 0 1 1 5 5 4 4 2 4 3 5 12 16 18 18 16 17 24
6 6 6 6 6 5 5 5 3 3 4 4 4 4 5 6 8 8 8 10 10 9 5 3 7 10 7 4 7 6 5 4 3 3 5 3 2 2 2 1 3 2 2 2 1 1 2 2 1 1 2 1 1 0 0 1 2 4 3 1 1 0 1 1 2 2 1 0 1 2 4 1 6 6 3 4 6 5 5 7 12 16 16 16 18 20 24
7 6 5 5 5 4 5 5 3 3 3 4 4 2 2 4 6 6 8 9 8 8 9 6 6 8 7 7 6 4 4 5 4 2 4 5 3 1 1 3 3 2 5 4 2 1 3 2 2 2 3 1 1 1 1 1 1 2 2 2 0 1 1 2 2 1 1 2 3 4 4 3 11 11 8 10 9 6 7 10 12 13 12 11 14 19 22
8 6 5 4 4 4 4 5 4 3 3 4 4 3 3 5 6 6 7 7 7 9 9 8 8 9 9 8 5 3 4 4 2 1 2 4 4 3 2 1 3 4 5 4 2 2 3 3 2 2 2 2 2 2 1 1 1 0 1 4 4 3 7 2 2 2 3 0 6 8 6 5 12 12 9 9 8 6 7 8 8 8 8 7 7 12 17
7 6 5 4 3 3 4 4 4 3 3 3 4 4 5 6 6 6 6 5 7 9 7 5 7 8 4 1 2 3 4 5 4 3 4 5 4 3 1 5 5 4 6 6 3 3 2 2 1 1 1 2 3 2 2 1 1 2 3 1 2 6 11 5 1 3 4 1 2 3 5 8 13 13 8 7 7 6 6 7 7 8 8 9 8 9 10
7 6 6 4 3 4 4 4 4 3 3 4 4 3 4 6 6 7 7 6 7 7 5 5 5 4 2 1 3 3 2 2 2 3 5 5 5 3 1 5 4 2 6 6 4 3 2 1 1 1 1 1 2 1 1 1 1 1 2 1 0 4 7 4 1 2 1 2 4 9 4 4 10 12 10 7 6 6 4 6 9 9 9 10 10 10 10
7 7 7 5 4 4 4 4 4 4 3 4 4 4 5 6 6 6 6 7 7 5 4 4 4 2 3 6 4 1 2 2 2 3 4 4 5 5 3 1 2 2 3 3 2 1 1 1 1 1 2 1 2 1 1 1 1 1 1 1 1 1 2 1 2 1 4 4 5 10 7 3 3 7 8 7 7 8 5 5 8 9 10 11 10 9 9
7 7 7 6 6 5 4 4 4 5 4 4 5 5 5 6 7 6 6 6 5 2 3 3 5 5 7 8 5 2 2 4 4 4 4 4 4 5 5 4 2 1 0 1 1 1 1 1 1 1 1 1 1 1 1 0 1 2 2 4 3 2 0 1 3 1 3 2 3 6 2 3 6 5 2 1 7 12 12 8 8 9 11 12 10 8 8
7 6 6 6 6 5 4 4 4 4 3 4 5 4 5 6 6 5 5 4 2 1 3 8 10 10 10 10 6 4 4 3 2 3 4 5 5 5 5 5 4 4 5 5 3 1 2 2 1 1 1 2 1 1 1 0 0 1 3 5 6 4 2 1 2 1 2 2 1 2 2 4 8 9 5 4 2 7 14 15 14 13 14 15 15 13 11
7 6 6 6 6 5 4 4 4 4 3 4 4 3 2 2 1 3 3 2 1 1 4 9 10 7 7 6 4 4 5 3 2 4 5 5 5 6 5 5 5 5 5 4 1 1 1 2 1 1 1 1 1 1 1 1 2 3 2 0 1 2 1 1 1 2 3 3 3 4 5 5 8 10 8 6 10 9 6 12 16 16 16 17 18 18 17
7 6 6 5 5 5 4 3 3 3 3 3 2 1 1 2 1 2 3 2 2 2 4 5 5 6 8 8 7 7 6 4 2 3 4 4 4 4 4 5 5 5 4 3 1 1 1 2 1 1 3 2 0 1 1 1 3 3 2 5 3 1 1 3 4 3 4 5 5 5 7 8 9 10 9 11 14 15 10 6 10 15 17 18 19 21 22
8 6 5 5 5 4 3 3 3 3 3 2 1 1 2 2 1 1 0 1 2 4 4 5 7 9 11 8 7 7 7 6 5 3 4 4 3 2 3 4 4 4 5 4 4 3 3 4 3 3 4 5 3 1 1 2 3 2 3 6 3 1 2 4 5 5 5 7 8 9 11 12 12 13 14 15 16 17 16 13 9 10 12 15 18 22 23
7 6 5 5 4 4 3 3 2 2 2 2 2 2 3 3 3 2 2 3 3 2 3 4 6 6 5 4 4 5 5 6 6 5 3 4 3 2 2 3 4 5 5 5 4 3 4 6 6 4 6 7 5 1 2 2 3 4 2 3 3 1 2 4 5 5 6 8 8 8 9 10 11 12 13 15 16 17 19 19 17 14 13 12 13 18 21
6 5 5 4 3 3 3 2 2 1 0 1 1 3 3 3 3 3 3 3 3 2 2 3 4 3 2 2 2 5 4 3 4 5 3 3 5 4 3 3 3 4 5 5 3 2 4 6 4 3 7 8 5 1 2 4 5 7 4 1 3 2 1 3 4 4 6 7 7 7 9 11 12 12 13 14 14 14 16 18 19 21 21 16 11 12 16
6 5 4 3 3 3 2 2 2 1 3 3 1 2 2 3 4 3 3 4 3 3 5 5 3 3 2 1 0 4 5 2 0 2 2 3 5 5 4 3 3 2 3 4 4 4 5 4 2 5 5 7 5 2 2 4 5 3 0 3 2 1 1 1 2 3 4 6 7 8 10 12 13 14 15 16 15 14 15 16 18 20 22 22 18 14 14
5 4 3 2 2 2 2 2 2 2 3 1 3 5 6 7 8 7 6 5 3 2 4 6 4 3 3 1 0 2 5 3 2 1 2 2 3 4 4 3 2 2 3 4 4 4 5 4 5 5 5 6 4 3 3 2 1 2 3 3 2 1 1 0 2 3 5 7 7 8 10 11 11 12 14 15 16 16 15 17 19 19 20 23 26 24 20
4 3 3 2 2 2 1 1 2 3 2 2 5 7 9 11 11 11 10 7 6 4 3 3 3 2 2 1 0 1 2 3 4 4 4 2 2 3 4 3 2 3 4 4 4 3 4 6 6 3 3 4 3 2 3 2 2 4 5 4 3 2 1 1 2 5 7 7 7 7 7 8 9 10 12 14 16 16 16 16 18 19 20 24 27 27 25
4 3 3 3 2 2 1 1 2 2 1 4 7 8 10 10 8 7 6 4 5 7 5 3 3 3 3 2 1 1 1 1 2 4 4 3 2 3 4 2 1 2 3 4 5 5 6 6 5 2 2 2 1 1 3 3 4 6 6 4 3 3 1 1 1 4 6 7 8 8 8 9 9 9 11 14 16 17 17 17 18 18 20 23 23 23 24
4 4 4 4 2 1 1 3 5 4 4 7 8 7 6 4 3 2 2 2 3 6 8 6 5 7 7 3 2 3 3 1 1 2 2 2 2 3 4 4 3 3 2 3 5 7 6 4 3 3 2 1 2 2 3 4 6 8 7 5 4 3 1 1 2 3 4 6 9 10 11 12 12 12 12 14 15 15 16 17 19 19 20 21 21 22 24
5 4 3 2 1 1 1 3 6 7 7 7 5 4 3 3 2 2 5 6 4 5 8 7 7 10 9 4 2 4 4 2 1 1 2 2 3 2 2 2 3 4 2 2 4 7 4 1 2 3 2 2 3 3 4 5 6 6 5 4 2 1 2 4 5 5 5 6 9 11 12 13 13 14 15 15 15 15 15 17 18 19 20 19 19 20 23
5 4 3 3 1 2 5 4 4 6 5 3 2 3 3 4 4 3 4 5 4 5 8 7 7 8 7 4 2 4 5 5 2 1 2 3 4 2 1 1 2 3 3 3 5 7 3 2 2 3 1 2 5 6 6 5 4 3 2 3 3 4 5 6 7 8 8 9 11 13 13 14 14 15 15 16 17 18 18 17 17 18 19 19 18 19 20
5 5 3 2 1 2 6 6 3 1 2 2 3 3 2 3 4 4 3 2 2 3 6 5 3 4 5 5 4 4 5 7 6 3 1 2 4 3 2 1 2 1 3 1 5 6 3 1 1 1 1 2 5 6 5 4 3 2 3 4 5 7 9 10 10 10 11 12 14 14 13 13 14 14 15 17 18 19 19 18 16 16 18 19 18 18 18
5 6 4 3 1 2 4 3 1 0 2 2 2 2 2 2 3 4 3 1 1 1 3 4 2 2 4 6 5 3 4 7 8 4 1 2 4 5 2 1 1 2 2 2 2 3 1 1 1 1 2 3 4 5 4 3 1 2 4 5 7 9 10 11 12 13 13 13 14 14 14 14 14 15 16 18 18 18 19 19 17 16 18 19 18 17 17
6 6 3 0 2 2 3 2 3 2 1 0 1 1 2 3 3 2 2 1 0 2 4 5 4 3 3 4 4 3 3 4 5 4 2 2 3 3 2 2 2 1 2 3 3 1 1 1 1 2 5 6 5 4 4 3 3 5 5 6 7 9 10 11 12 13 13 13 14 14 14 15 16 17 16 16 17 17 18 18 16 15 17 20 21 19 19
6 4 2 1 1 2 1 1 3 2 0 0 2 2 3 3 3 2 2 1 2 3 5 6 6 4 3 3 4 3 2 3 4 4 3 3 3 2 1 2 2 2 2 2 2 1 1 1 2 4 7 8 6 4 3 3 4 5 6 7 8 9 11 12 13 14 14 15 16 15 15 15 16 17 16 15 15 15 16 16 16 16 18 21 21 20 21
4 2 1 0 1 1 1 0 2 2 2 2 2 3 3 3 1 2 2 3 4 4 5 5 6 4 2 2 3 3 3 3 3 2 2 2 2 1 1 2 2 2 2 2 2 1 2 2 3 5 6 6 4 3 2 2 3 5 6 8 9 9 10 11 13 15 16 17 17 17 17 16 16 17 18 17 16 16 15 15 16 16 19 22 22 21 24
2 4 4 1 0 2 2 1 0 2 3 4 6 8 7 1 4 5 4 4 4 4 3 4 5 5 4 3 3 3 3 3 3 2 2 1 0 1 4 4 3 2 2 2 1 1 2 1 4 6 6 4 3 1 1 3 4 6 8 9 10 11 11 13 14 15 16 17 17 18 18 17 16 18 18 17 17 16 13 13 14 17 21 22 21 22 23
2 3 3 2 1 3 4 3 5 7 7 8 12 16 9 6 12 9 6 5 5 4 2 3 4 3 4 4 3 2 3 3 2 3 3 2 0 2 3 3 2 2 2 0 1 1 1 1 4 5 4 4 4 3 4 5 6 8 10 12 13 14 15 16 16 17 17 18 18 19 19 18 18 18 17 15 14 14 12 11 12 17 21 23 23 23 23
2 4 2 2 1 2 4 6 9 12 13 17 22 21 8 11 16 10 5 5 4 2 4 5 3 2 3 3 3 2 3 2 2 3 4 2 1 1 1 1 2 1 1 1 1 2 2 5 8 8 7 6 5 6 7 8 9 10 11 12 14 15 15 16 16 18 19 18 18 18 19 19 19 18 16 13 12 12 11 11 14 17 20 22 23 23 22
2 4 3 2 3 5 7 10 11 11 15 20 20 10 7 15 15 11 8 7 6 6 6 5 3 2 2 2 2 2 3 4 2 2 3 3 2 2 2 1 1 1 1 1 1 4 9 11 11 9 7 7 7 8 9 9 11 12 12 12 13 14 14 15 16 17 17 17 16 17 18 18 18 18 15 13 12 11 10 14 18 21 24 25 25 22 19
4 5 5 5 5 6 9 11 10 7 11 18 12 4 15 14 11 10 8 5 6 7 6 4 3 3 2 2 2 2 3 4 2 2 2 3 3 2 1 1 1 2 2 4 7 11 13 12 10 8 8 8 8 9 9 10 11 12 12 13 13 14 14 14 14 15 15 15 15 15 15 14 14 14 13 12 13 14 15 19 24 26 28 27 23 19 16
5 6 7 9 11 10 10 11 9 6 10 16 11 5 12 10 8 8 6 5 6 6 3 1 1 1 1 2 2 2 1 2 2 3 2 2 1 1 1 2 2 3 7 11 14 14 12 10 9 9 8 8 8 9 10 11 11 12 12 13 13 14 14 13 13 14 14 13 13 13 13 12 11 11 9 10 14 16 16 18 21 21 20 18 16 16 16
5 5 7 11 14 15 15 15 14 14 17 17 8 7 10 8 6 6 4 5 6 5 2 2 2 2 1 1 1 2 1 1 2 3 2 0 1 1 3 5 7 8 12 15 15 13 11 10 10 9 9 9 10 10 10 10 10 11 12 12 12 12 12 11 11 12 13 11 10 10 10 9 9 7 5 8 15 18 19 19 19 19 19 17 16 16 16
Wind_Direction
344 344 343 345 351 353 352 349 344 344 349 352 352 352 354 326 298 303 82 181 194 200 256 273 173 99 8 333 66 20 360 1 5 16 22 27 49 30 88 88 56 63 314 299 13 67 10 65 147 244 267 353 22 5 358 358 4 12 5 346 350 345 323 314 323 319 279 240 178 185 225 320 324 287 47 50 257 245 197 159 161 42 83 104 98 98 143
346 344 344 346 351 354 354 351 346 344 344 348 354 351 342 326 310 284 154 249 226 220 281 307 94 87 46 77 97 85 40 11 350 2 22 12 355 17 63 105 129 151 222 278 53 72 327 324 41 258 250 30 14 16 18 12 14 33 19 323 336 341 327 349 346 327 332 356 46 28 347 11 357 298 305 265 259 269 240 99 67 64 82 108 114 107 142
348 346 344 347 352 355 356 354 347 342 340 343 349 344 339 336 317 268 221 263 218 210 346 351 53 61 137 83 80 119 93 57 344 343 0 357 356 3 30 18 16 134 190 319 63 93 81 19 288 274 114 89 19 18 38 37 24 13 357 326 316 297 295 7 40 4 22 69 10 338 326 329 314 297 301 271 268 298 42 76 63 71 93 129 129 118 125
349 348 345 348 354 355 356 357 349 341 337 340 348 346 339 330 311 303 349 335 44 58 7 9 49 17 81 79 19 32 85 97 53 1 356 358 352 339 4 24 18 44 54 31 26 61 69 29 298 295 49 95 53 355 8 63 36 335 335 340 326 306 294 136 121 103 103 192 222 284 308 308 300 288 294 281 279 3 85 82 87 125 131 38 124 135 136
351 350 348 350 355 357 358 358 352 342 332 337 348 350 339 304 301 14 20 338 12 38 12 13 41 20 29 38 312 28 66 86 71 35 16 7 354 344 22 28 31 54 63 58 17 27 44 14 348 4 8 18 112 343 346 53 29 339 357 27 18 341 331 341 82 224 247 256 305 341 333 326 348 331 280 264 266 345 69 66 105 135 117 54 130 139 138
352 352 351 352 356 359 1 359 355 348 332 338 344 347 348 333 327 3 23 328 14 39 2 5 33 29 32 10 313 45 58 47 58 58 43 32 17 10 38 35 39 55 66 78 31 11 33 16 1 8 356 341 8 46 27 36 20 3 27 41 35 106 326 343 338 319 294 289 300 327 331 332 357 345 318 290 306 342 7 82 107 113 114 138 164 148 139
354 354 353 354 358 1 3 2 0 353 345 1 11 9 3 358 344 354 1 351 12 23 314 358 65 34 13 358 1 46 70 62 49 32 34 52 29 19 46 42 35 54 71 82 71 32 33 14 356 354 342 340 353 21 41 23 7 4 24 42 41 58 314 345 349 347 344 313 283 313 336 342 353 340 344 9 10 1 357 357 40 85 114 138 150 139 131
355 355 354 356 0 3 5 6 5 357 354 31 44 35 12 2 352 345 343 340 0 357 312 301 110 104 290 345 2 36 64 65 59 37 28 43 33 31 63 62 39 53 60 58 74 69 56 27 8 344 328 346 10 23 28 0 352 358 15 18 17 17 323 336 6 11 337 316 307 345 323 325 336 331 348 7 4 360 355 358 59 96 115 125 126 118 109
353 354 356 358 1 6 7 8 11 8 4 27 39 30 11 356 343 348 343 329 351 348 301 289 63 75 44 32 21 47 59 54 65 61 41 33 28 27 52 64 56 64 54 40 43 27 2 15 16 352 345 356 0 3 11 1 346 355 12 357 343 359 342 332 13 61 318 310 339 331 294 307 325 334 356 355 340 1 348 355 68 105 118 117 118 122 124
351 354 357 358 3 8 8 9 14 15 17 29 35 26 13 359 350 13 7 331 312 314 270 349 46 75 58 33 40 48 55 49 45 61 74 60 46 23 22 26 37 74 63 40 24 354 345 357 347 322 312 315 329 353 3 25 32 359 353 348 336 360 17 346 9 43 300 305 321 310 303 3 339 339 12 4 357 10 325 355 64 113 132 129 139 154 148
349 353 356 357 2 10 8 9 14 16 22 30 34 29 13 2 359 7 5 337 303 307 75 64 36 157 135 63 69 53 57 67 51 38 108 89 68 51 41 32 28 70 63 32 20 347 338 332 311 311 302 291 315 342 342 26 54 19 339 344 333 1 22 354 358 6 301 314 332 334 357 100 187 337 19 11 359 355 349 54 73 100 116 105 117 130 123
346 349 354 356 360 9 9 8 12 17 24 25 29 32 14 3 9 8 360 337 301 313 62 78 13 27 68 67 75 58 57 72 65 58 71 57 54 57 46 36 35 62 80 359 338 310 292 253 242 308 4 333 316 297 287 37 44 15 25 24 341 4 20 341 340 354 303 326 358 6 338 213 50 20 22 15 4 13 61 78 79 96 106 103 110 122 124
343 346 351 353 356 5 9 8 6 11 22 23 26 31 15 5 19 22 7 353 301 322 20 79 51 48 59 68 75 70 67 63 46 57 67 36 57 70 58 51 56 30 3 20 338 312 299 261 150 12 8 12 334 308 323 86 46 21 37 28 355 14 20 326 324 307 295 332 357 129 232 283 3 29 23 15 10 14 48 69 79 97 109 110 114 114 106
339 342 347 349 351 357 4 9 5 1 13 18 18 25 17 10 18 23 14 357 298 328 359 52 79 60 56 63 66 84 103 91 47 46 38 350 59 75 60 54 54 13 8 28 339 307 298 342 62 47 266 127 9 324 360 66 75 55 38 9 12 42 18 358 1 293 278 293 280 263 82 328 353 29 45 48 33 357 15 80 88 93 106 113 112 100 90
334 337 343 343 346 352 356 3 5 358 5 12 7 12 20 18 16 17 15 354 306 336 16 34 47 50 63 67 24 328 102 114 131 102 59 306 76 82 57 33 29 358 3 21 324 306 285 268 223 164 175 111 106 323 347 355 124 127 112 21 16 43 27 53 78 295 338 1 304 339 43 316 327 15 66 66 45 9 18 79 76 87 120 128 125 121 129
332 331 337 337 339 346 348 354 1 358 358 6 5 2 13 21 18 14 18 11 331 330 28 29 6 8 41 62 11 298 89 73 152 147 122 304 72 101 100 50 16 354 5 13 317 313 299 283 334 81 121 93 100 170 321 331 317 128 120 98 348 346 28 66 49 313 335 350 300 293 152 262 288 336 32 49 40 13 26 61 17 150 138 138 129 122 136
331 325 326 330 334 340 339 342 352 357 357 1 3 360 6 16 13 9 19 19 347 316 1 26 0 353 17 58 38 319 25 22 354 193 130 187 327 111 122 131 228 25 18 354 276 300 304 265 329 58 105 102 102 138 219 313 300 160 119 129 228 265 253 135 217 276 263 276 287 304 58 260 263 349 35 38 27 11 47 80 251 236 156 150 148 144 145
324 320 318 321 327 334 332 330 341 352 359 4 6 2 4 12 11 7 17 19 351 316 358 21 11 11 21 23 27 23 6 358 339 234 164 188 223 122 111 110 149 133 6 327 268 271 306 273 28 89 139 286 89 112 107 21 315 292 332 9 233 273 252 182 208 251 247 235 242 246 297 237 241 43 43 35 16 22 105 168 260 316 64 132 148 148 144
310 311 310 313 322 328 324 323 333 344 353 3 11 6 1 9 12 9 12 16 351 319 355 14 5 13 13 299 314 347 327 342 348 316 262 181 103 50 8 333 62 152 221 315 14 293 287 327 43 99 126 111 73 90 103 130 241 316 354 360 328 298 304 213 210 240 245 229 225 263 334 174 102 62 45 38 41 115 174 141 19 36 58 82 115 132 132
301 299 302 306 313 320 318 320 328 335 343 353 7 20 24 15 10 6 6 4 341 321 351 24 5 356 3 336 340 342 338 41 34 324 329 37 61 7 334 281 217 208 202 163 24 321 352 23 9 48 89 105 126 95 149 206 231 215 177 346 239 275 350 307 258 248 240 242 243 346 310 195 126 99 33 17 75 168 173 61 53 61 69 76 88 111 127
300 285 290 299 307 314 313 314 324 334 338 337 348 26 38 14 3 2 355 350 336 315 319 14 354 346 343 344 354 350 346 12 18 326 345 20 74 46 29 306 297 337 43 34 326 8 41 6 327 359 29 64 132 151 85 287 249 207 183 145 18 60 95 282 312 346 33 243 262 245 264 346 99 106 100 105 112 117 117 89 69 64 69 77 81 95 122
301 274 275 289 298 308 307 307 319 331 332 330 331 2 20 343 341 348 340 334 321 296 288 295 322 327 310 306 323 323 314 338 7 13 345 340 347 68 210 277 298 33 57 35 350 19 20 355 340 356 358 359 253 264 314 344 287 204 150 128 256 316 66 155 213 313 291 206 182 211 258 59 91 97 103 112 111 96 101 105 88 75 76 85 84 87 107
300 264 261 278 290 300 299 300 311 317 323 329 325 326 328 317 319 332 336 335 328 315 308 303 296 289 279 268 262 261 266 270 288 347 275 283 306 289 243 331 42 75 69 53 56 51 20 360 6 13 348 335 345 329 306 271 240 312 122 179 186 13 19 35 208 329 343 196 145 155 186 139 112 112 112 113 113 108 112 116 110 100 97 101 107 104 105
294 261 251 260 281 293 292 292 300 307 316 319 316 325 325 314 320 341 350 358 356 343 333 305 274 272 277 236 213 259 274 250 246 263 241 239 267 282 24 40 42 79 85 78 86 78 42 343 356 26 333 354 25 1 304 301 38 27 7 229 179 28 20 15 322 14 11 356 112 142 184 159 129 124 128 125 121 121 122 131 144 147 129 117 134 151 134
284 259 247 244 261 284 287 285 287 291 303 306 306 317 314 307 328 353 1 3 357 339 322 309 277 242 235 317 275 259 255 218 223 261 252 246 255 261 12 33 27 78 91 85 84 76 64 286 277 280 271 22 53 13 328 37 56 44 24 327 297 20 15 7 355 12 330 240 345 354 335 174 145 139 144 147 147 146 130 126 141 151 149 134 135 154 160
282 259 246 240 249 272 279 279 282 280 282 293 297 303 307 309 320 334 338 338 331 295 258 281 300 273 286 302 296 218 172 198 247 273 258 244 245 249 258 5 49 78 77 68 51 36 352 309 315 279 278 34 58 351 350 51 318 283 280 295 305 28 358 350 129 24 300 273 353 4 349 258 181 146 149 164 175 169 154 137 144 151 156 150 142 144 151
287 264 246 239 245 263 274 278 279 275 273 281 287 294 302 307 312 319 327 331 326 285 233 283 324 338 319 299 282 249 264 272 269 259 243 236 237 243 251 251 231 201 220 293 275 234 217 246 265 271 308 19 37 295 271 137 340 323 272 269 262 221 210 118 137 188 285 254 59 35 23 268 312 340 9 217 200 184 177 177 174 170 170 169 165 161 161
284 270 249 239 243 257 270 278 275 270 272 277 282 296 306 302 304 319 335 330 309 236 292 307 312 313 304 294 274 241 242 258 255 236 230 230 220 215 234 246 234 225 233 237 236 209 197 221 254 10 27 39 49 280 264 184 252 253 247 258 259 241 214 160 163 257 273 201 172 333 283 268 300 309 317 345 316 197 192 199 201 193 187 184 180 175 171
280 270 247 234 243 257 270 277 271 264 269 275 281 306 330 324 343 20 25 15 327 267 307 311 306 295 294 304 290 241 219 205 239 252 247 239 223 206 209 219 221 234 249 248 246 326 299 278 302 47 118 120 93 333 304 253 231 250 267 301 200 192 189 224 258 302 305 282 278 284 266 266 293 293 276 288 312 305 243 210 207 205 200 193 190 188 185
276 266 239 230 246 262 268 270 260 253 259 272 281 271 186 176 167 18 32 42 18 341 333 320 301 297 303 300 279 258 242 217 226 262 263 263 255 232 216 214 212 227 254 264 243 240 263 266 265 162 170 181 168 309 277 261 260 272 42 71 87 129 226 263 268 279 288 290 293 283 272 274 289 291 265 249 267 288 292 251 214 210 209 208 205 201 196
270 255 231 233 253 263 266 261 249 245 252 259 268 243 199 195 209 238 346 350 326 329 330 300 280 291 298 283 251 246 249 232 219 239 267 268 267 263 256 253 244 237 244 252 252 248 247 246 226 170 178 198 201 201 257 276 275 276 79 81 73 335 296 271 260 258 271 281 281 278 278 276 274 273 266 257 258 265 269 266 251 227 221 223 219 209 199
260 242 229 243 258 259 255 243 230 238 254 255 266 277 269 266 261 239 242 274 282 299 321 299 283 286 294 267 211 215 246 243 218 210 235 249 242 248 256 255 258 256 245 245 256 264 253 247 237 193 180 188 188 208 250 230 249 273 285 106 105 59 338 288 269 264 270 276 279 277 275 274 274 276 278 274 268 263 263 264 259 252 254 250 228 214 208
249 233 234 252 257 245 236 225 217 226 170 61 327 301 283 280 280 255 239 257 268 251 251 277 283 275 279 289 212 202 220 249 217 199 207 238 241 240 239 240 256 259 239 224 218 216 238 248 240 165 165 182 191 229 246 230 254 278 287 126 114 84 342 282 273 276 276 276 280 280 276 274 276 283 289 286 277 267 264 260 251 249 253 252 232 215 213
235 230 243 256 246 228 219 211 213 183 121 101 9 328 333 330 320 299 271 275 281 246 223 234 267 275 248 243 175 205 212 229 206 193 210 249 246 240 245 256 257 241 221 214 215 240 257 245 161 127 155 185 199 234 259 255 263 273 111 115 127 94 3 281 273 300 312 306 298 294 293 288 282 281 284 285 280 273 265 261 258 256 253 246 236 229 225
228 233 240 226 211 217 222 220 219 177 133 135 273 278 289 303 308 308 302 291 275 236 218 218 230 262 258 242 69 219 224 237 277 242 223 261 257 235 233 246 224 197 214 217 216 245 254 207 163 152 166 177 188 218 235 238 210 145 139 147 177 178 118 13 313 332 342 334 314 302 302 301 295 292 291 286 281 277 269 264 266 265 257 246 237 231 228
217 219 215 194 192 209 201 173 181 172 174 259 271 269 277 286 291 296 294 273 237 227 245 248 236 242 257 258 314 290 254 256 262 245 219 222 250 219 213 236 237 203 205 210 211 226 219 191 180 184 187 188 206 225 204 181 158 166 171 169 170 175 155 18 342 344 347 339 321 309 306 301 292 287 285 281 279 279 272 264 264 262 254 247 237 229 227
200 195 189 177 176 175 137 126 167 173 240 297 292 285 283 284 290 303 308 286 242 228 234 263 269 242 212 185 201 234 227 218 254 243 208 189 211 210 199 216 236 179 187 214 222 214 196 184 190 228 222 190 184 165 164 165 169 174 177 178 177 175 148 89 16 350 347 339 331 330 330 322 307 287 272 269 273 275 269 261 258 255 252 249 241 233 232
185 182 179 173 171 161 148 179 193 209 291 307 302 297 288 276 282 285 227 211 248 232 217 222 248 244 234 222 192 197 194 170 238 258 200 173 206 202 187 196 203 190 217 248 210 190 179 168 188 232 230 133 99 109 145 165 178 187 195 198 184 172 152 359 346 342 338 333 332 332 327 321 314 302 288 278 274 274 268 260 255 253 251 250 245 240 235
172 160 139 129 154 271 278 219 223 251 289 305 302 293 266 225 232 219 181 175 195 216 206 212 237 241 239 234 165 181 199 198 199 220 206 211 224 208 191 204 189 184 239 276 185 175 187 210 188 197 198 131 126 154 179 190 197 203 205 200 195 266 317 320 321 319 313 309 311 310 307 306 307 306 300 292 284 281 277 270 264 257 248 243 242 241 231
149 123 81 65 78 313 326 324 279 268 291 323 302 271 241 207 207 187 155 164 195 203 196 205 228 231 229 228 196 199 211 217 224 229 196 201 206 209 246 255 154 168 258 268 170 169 207 260 179 168 166 147 152 160 169 176 180 188 209 241 268 288 294 294 299 304 302 297 297 298 296 293 293 296 295 290 284 281 278 276 275 267 252 241 240 241 231
135 121 102 90 89 330 331 344 360 320 308 300 259 251 230 203 217 222 207 207 218 176 171 180 191 196 203 212 215 208 208 213 219 226 217 207 205 208 239 278 145 191 281 251 158 167 215 271 125 119 111 145 153 158 160 157 156 184 243 273 283 286 289 294 302 309 310 303 300 301 298 288 282 285 288 286 283 280 276 276 277 271 257 243 233 230 224
148 142 142 146 156 309 323 338 31 312 282 273 263 270 265 243 232 220 209 214 18 112 163 175 171 177 197 205 207 204 202 205 205 203 206 214 202 201 228 282 178 203 263 257 179 179 206 149 122 141 166 157 154 160 169 178 213 252 268 284 293 299 303 307 308 310 310 306 303 301 297 290 286 288 289 287 282 279 277 278 278 271 256 239 219 206 203
165 155 140 136 234 257 282 260 218 216 240 65 47 319 279 253 233 217 207 186 152 191 186 172 162 174 194 195 194 193 187 190 199 209 227 223 197 196 239 261 220 220 280 273 252 224 133 125 130 152 163 167 167 168 180 221 275 291 296 300 303 307 309 308 306 305 305 304 304 303 299 296 295 295 294 290 284 280 278 276 274 264 246 228 212 201 196
145 144 92 8 258 233 234 199 187 169 113 272 226 233 248 238 214 202 194 165 166 192 194 183 178 189 200 179 172 179 185 184 193 209 219 212 203 204 227 233 240 287 303 272 245 182 105 95 112 139 156 170 183 196 212 247 281 298 307 308 305 303 300 299 302 305 305 304 306 306 304 300 298 296 295 290 283 278 276 274 271 260 238 218 203 191 185
131 158 170 314 314 147 133 229 193 182 227 250 216 222 263 275 195 134 165 190 186 181 179 180 178 178 191 192 183 190 213 206 191 204 233 220 199 213 241 250 261 274 275 270 266 136 106 108 134 153 164 175 189 204 231 302 319 318 316 314 312 311 310 307 307 306 305 305 306 304 302 300 298 296 294 288 282 281 283 281 271 250 225 207 193 180 175
165 199 195 230 314 177 185 223 143 189 225 226 216 229 250 287 88 105 128 136 128 120 138 178 182 171 175 198 203 200 210 207 189 199 231 246 78 235 244 252 260 253 249 273 321 71 88 142 178 175 168 158 150 157 336 341 335 328 327 326 323 320 317 315 313 309 306 305 303 301 300 298 295 293 291 285 279 281 287 282 257 225 200 187 179 172 168
262 234 213 226 246 205 201 218 234 239 248 254 255 256 253 109 108 126 146 122 86 66 104 177 199 206 204 211 216 214 220 232 224 199 194 191 249 246 243 254 262 251 249 279 105 116 119 161 158 145 120 92 71 37 360 340 327 320 321 322 321 318 315 313 310 307 304 302 298 296 297 295 291 289 287 280 275 279 282 267 232 198 176 166 163 162 162
280 277 252 223 215 211 217 238 251 253 255 260 264 264 246 119 115 124 122 97 84 97 133 147 175 254 251 231 228 208 190 204 235 214 193 188 216 233 231 261 259 239 98 92 168 186 128 106 104 93 74 57 36 10 352 339 329 324 322 321 320 318 315 313 308 303 301 301 298 296 293 290 287 286 283 273 269 273 266 233 197 173 161 160 161 160 160
283 289 277 252 255 260 262 270 275 273 271 272 270 256 136 113 116 121 114 105 117 134 143 156 189 228 220 221 248 234 191 184 205 215 193 193 213 209 197 217 231 114 72 72 107 91 85 86 86 75 54 32 8 350 340 333 330 328 325 323 320 318 316 313 308 304 302 303 302 298 293 288 287 286 280 262 250 243 223 200 187 172 162 159 159 157 155
246 255 250 246 259 275 281 282 282 286 296 300 304 95 109 110 116 123 123 127 137 137 138 161 194 205 204 212 245 248 196 180 194 220 219 226 241 231 178 129 115 112 91 77 79 81 79 74 65 49 34 19 3 352 346 341 336 333 328 324 323 322 320 316 311 306 304 303 301 299 296 293 289 283 270 246 231 217 196 182 177 169 160 155 157 157 151
233 240 238 237 243 255 270 281 285 286 291 297 310 68 102 110 116 115 118 141 152 144 129 140 187 206 214 208 234 264 196 158 188 223 226 238 273 275 100 83 86 101 97 91 90 89 82 65 49 40 31 18 5 358 353 348 342 338 335 331 329 328 324 320 318 316 313 308 301 297 296 295 291 285 269 238 222 212 195 179 175 170 161 157 159 156 147
229 240 248 248 247 250 256 264 270 272 273 279 302 56 85 105 117 111 121 151 155 152 166 199 207 214 200 196 279 315 332 265 259 255 227 222 330 359 81 90 89 92 95 96 96 91 76 60 51 45 36 26 13 2 356 352 348 348 349 347 343 340 337 335 333 329 327 325 315 302 295 297 299 291 256 211 200 189 172 160 160 160 153 148 146 144 142